Change the Weather History Date:

Monday, November 28, 2011

  Actual Average Record
Temperature  
Mean Temperature 60 °F -  
Max Temperature 69 °F 69 °F 80 °F (1985)
Min Temperature 50 °F 48 °F 25 °F (1956)
Degree Days  
Heating Degree Days 6    
Growing Degree Days 10 (Base 50)    
Moisture  
Dew Point 60 °F    
Average Humidity 91    
Maximum Humidity 100    
Minimum Humidity 78    
Precipitation  
Precipitation 0.63 in - - ()
Sea Level Pressure  
Sea Level Pressure 29.93 in    
Wind  
Wind Speed 6 mph (South)    
Max Wind Speed 16 mph    
Max Gust Speed 25 mph    
Visibility 7 miles    
Events Rain    
Averages and records for this station are not official NWS values.
T = Trace of Precipitation, MM = Missing Value Source: NWS Daily Summary

Daily Weather History Graph

Daily Weather History Graph

Search for Another Location

Airport or City:

Trip Planner

Search our weather history database for the weather conditions in past years. The results will help you decide how hot, cold, wet, or windy it might be!

Date:

Astronomy

Nov. 28, 2011 Rise Set
Actual Time 7:03 AM EST 5:18 PM EST
Civil Twilight 6:36 AM EST 5:44 PM EST
Nautical Twilight 6:06 AM EST 6:14 PM EST
Astronomical Twilight 5:36 AM EST 6:44 PM EST
Moon 10:13 AM EST (11/28) 9:00 PM EST (11/28)
Length of Visible Light 11h 08m
Length of Day
10h 14m
Waxing Crescent, 15% of the Moon is Illuminated
Nov 28
Waxing Crescent
Dec 2
First Quarter
Dec 10
Full
Dec 17
Last Quarter
Dec 24
New

Hourly Weather History & Observations

Time (EST) Temp. Dew Point Humidity Pressure Visibility Wind Dir Wind Speed Gust Speed Precip Events Conditions
12:15 AM 68.0 °F 62.6 °F 83% 30.01 in 10.0 mi SSE 4.6 mph - 0.00 in   Mostly Cloudy
12:35 AM 69.8 °F 62.6 °F 78% 30.00 in 10.0 mi SSE 5.8 mph - 0.00 in   Overcast
12:55 AM 69.8 °F 62.6 °F 78% 30.00 in 10.0 mi SE 9.2 mph - 0.00 in   Mostly Cloudy
1:15 AM 68.0 °F 62.6 °F 83% 29.99 in 10.0 mi SSE 5.8 mph - 0.00 in   Mostly Cloudy
1:35 AM 68.0 °F 64.4 °F 88% 29.99 in 10.0 mi SSE 6.9 mph - 0.00 in   Mostly Cloudy
1:55 AM 68.0 °F 64.4 °F 88% 29.98 in 10.0 mi SSE 6.9 mph - 0.00 in   Mostly Cloudy
2:15 AM 68.0 °F 64.4 °F 88% 29.98 in 10.0 mi SSE 6.9 mph - 0.00 in   Scattered Clouds
2:35 AM 69.8 °F 64.4 °F 83% 29.98 in 9.0 mi South 5.8 mph - 0.00 in   Overcast
2:55 AM 68.0 °F 64.4 °F 88% 29.97 in 9.0 mi SSE 3.5 mph - 0.00 in   Scattered Clouds
3:15 AM 66.2 °F 64.4 °F 94% 29.96 in 8.0 mi SSE 3.5 mph - 0.00 in   Clear
3:55 AM 66.2 °F 64.4 °F 94% 29.95 in 8.0 mi SSE 4.6 mph - 0.00 in   Clear
4:15 AM 66.2 °F 64.4 °F 94% 29.95 in 9.0 mi SSE 3.5 mph - 0.00 in   Scattered Clouds
4:35 AM 66.2 °F 64.4 °F 94% 29.95 in 8.0 mi SE 5.8 mph - 0.00 in   Scattered Clouds
4:55 AM 66.2 °F 64.4 °F 94% 29.94 in 8.0 mi SE 4.6 mph - 0.00 in   Partly Cloudy
5:15 AM 66.2 °F 64.4 °F 94% 29.94 in 8.0 mi SSE 3.5 mph - 0.00 in   Clear
5:35 AM 66.2 °F 64.4 °F 94% 29.94 in 8.0 mi SSE 5.8 mph - 0.00 in   Partly Cloudy
6:50 AM 68.0 °F 64.4 °F 88% 29.94 in 10.0 mi Calm Calm - N/A   Clear
7:50 AM 68.0 °F 64.4 °F 88% 29.94 in 10.0 mi South 9.2 mph - N/A   Mostly Cloudy
8:50 AM 69.8 °F 64.4 °F 83% 29.94 in 10.0 mi SSE 9.2 mph - N/A   Overcast
9:50 AM 69.8 °F 64.4 °F 83% 29.94 in 10.0 mi SSE 9.2 mph - N/A   Mostly Cloudy
10:50 AM 68.0 °F 66.2 °F 94% 29.94 in 0.8 mi SW 15.0 mph 23.0 mph N/A Rain Heavy Rain
11:50 AM 69.8 °F 69.8 °F 100% 29.91 in 5.0 mi South 6.9 mph 19.6 mph N/A Rain Rain
12:50 PM 69.8 °F 69.8 °F 100% 29.88 in 5.0 mi South 5.8 mph - N/A   Mostly Cloudy
1:26 PM 69.8 °F 69.8 °F 100% 29.86 in 1.0 mi SSE 6.9 mph - N/A Rain Rain
2:50 PM 69.8 °F 69.8 °F 100% 29.84 in 6.0 mi SSE 9.2 mph 18.4 mph N/A   Mostly Cloudy
3:50 PM 69.8 °F 66.2 °F 88% 29.81 in 10.0 mi SSE 6.9 mph - N/A   Mostly Cloudy
4:50 PM 68.0 °F 66.2 °F 94% 29.81 in 5.0 mi SSE 6.9 mph - N/A   Mostly Cloudy
5:50 PM 60.8 °F 59.0 °F 94% 29.85 in 10.0 mi WSW 15.0 mph 23.0 mph N/A   Overcast
6:50 PM 55.4 °F 51.8 °F 88% 29.87 in 10.0 mi WSW 16.1 mph 25.3 mph N/A   Overcast
7:50 PM 55.4 °F 51.8 °F 88% 29.90 in 10.0 mi WSW 13.8 mph 23.0 mph N/A   Overcast
8:15 PM 53.6 °F 51.8 °F 94% 29.91 in 5.0 mi West 10.4 mph 17.3 mph 0.05 in Rain Rain
8:35 PM 53.6 °F 51.8 °F 94% 29.92 in 4.0 mi West 9.2 mph - 0.11 in Rain Heavy Rain
9:15 PM 51.8 °F 51.8 °F 100% 29.94 in 5.0 mi West 9.2 mph - 0.03 in   Light Drizzle
9:35 PM 51.8 °F 50.0 °F 94% 29.93 in 9.0 mi West 6.9 mph - 0.03 in   Light Drizzle
9:55 PM 51.8 °F 50.0 °F 94% 29.95 in 2.0 mi WSW 6.9 mph - 0.11 in Rain Heavy Rain
10:15 PM 51.8 °F 48.2 °F 88% 29.95 in 2.0 mi West 8.1 mph - 0.24 in Rain Heavy Rain
10:35 PM 50.0 °F 48.2 °F 94% 29.96 in 5.0 mi WSW 4.6 mph - 0.35 in   Light Drizzle
10:55 PM 50.0 °F 48.2 °F 94% 29.95 in 10.0 mi WSW 4.6 mph - 0.35 in   Light Drizzle
11:15 PM 50.0 °F 50.0 °F 100% 29.94 in 5.0 mi Calm Calm - 0.00 in   Light Drizzle
11:35 PM 50.0 °F 48.2 °F 94% 29.94 in 5.0 mi West 3.5 mph - 0.02 in   Light Drizzle
11:55 PM 50.0 °F 48.2 °F 94% 29.94 in 3.0 mi North 4.6 mph - 0.06 in   Drizzle